OBJECT T (43775 NORAD) Tracking and Keplerian Element Data

This shows tracking and keplerian element data for the satellite.

Feedback or suggestion? Click here.




ElementValue
Catalog43775
NameOBJECT T
Epoch Orbit1394
Epoch Day66.19619371
Epoch Year2019
RAAN139.3859
Inclination97.756
Eccentricity0.0013555
Argument of Perigee314.2547
Mean Anonmoly45.756
Mean Motion14.94873684
Decay Rate1.69E-06
L11 43775U 18099T 19066.19619371 .00000169 00000-0 20839-4 0 9994
L22 43775 97.7560 139.3859 0013555 314.2547 45.7560 14.94873684 13943

Live tracking and technical data element details for OBJECT T (NORAD 43775). OBJECT T can be tracked NOW for your location showing map with azimuth and elevation plus other details from your city location.

Track the satellite on the map from your city or location and see movement details for azimuth, elevation, latitude, longitude, range, height, and movement on the map or in text.







IsCatalogInMostPopularTable: catalog: 43775, numindb: 52
Update: records affected: 1



GetName: 43775 OBJECT T

Hit Count: updated at: Wed, 24 Apr 2019 17:47:28 GMT